Dewpoint
66 65 65 64 64 65 65 65 65 65 66 67 67 67 67 68 67 67 66 66 66 67 68 69 68 67 67 69 69 68 67 67 67 66 65 66 64 65 65 66 66 66
66 66 65 65 65 65 66 66 66 66 67 68 67 68 68 68 68 67 67 66 66 66 67 67 68 67 67 67 68 68 68 68 68 67 66 65 65 64 65 66 66 66
66 66 66 65 65 65 66 67 67 67 67 68 68 69 69 69 69 68 67 67 65 66 66 67 68 67 67 67 68 69 67 67 66 67 67 66 66 65 66 66 66 67
66 66 66 66 66 66 66 67 67 67 67 67 67 68 68 68 68 68 68 67 66 66 67 68 68 67 66 66 68 68 67 67 67 67 67 67 67 66 66 68 67 67
66 66 66 66 66 66 66 65 66 66 67 67 67 67 67 68 68 67 68 68 67 67 67 67 68 68 67 67 67 67 67 67 68 68 67 66 66 65 67 67 66 66
66 65 65 65 66 66 66 65 65 65 65 66 66 67 67 68 68 68 67 67 67 66 67 67 67 67 67 67 67 67 67 67 67 67 67 65 65 66 66 66 65 64
66 65 66 66 66 66 66 65 65 65 65 66 66 66 67 68 67 66 66 67 66 66 65 66 67 67 68 68 67 67 67 67 66 65 65 66 66 66 65 66 66 64
66 66 66 66 67 66 66 65 65 65 65 65 65 66 66 66 66 67 67 67 66 65 65 65 66 65 67 67 67 66 66 67 67 65 65 65 66 66 66 66 66 65
66 66 66 67 67 66 65 64 65 65 65 65 65 66 66 66 66 66 66 65 64 66 65 64 65 65 67 67 67 66 65 66 67 67 67 67 66 66 66 64 62 63
66 66 67 67 66 66 65 65 65 65 65 65 64 65 65 66 66 66 65 64 64 64 64 65 66 67 67 67 66 66 65 65 66 67 67 66 66 65 64 63 62 63
67 67 66 66 66 66 65 65 65 65 65 64 64 64 64 66 67 66 65 63 64 64 64 64 65 65 66 66 67 67 66 66 66 66 66 65 65 65 65 63 63 63
66 66 66 66 66 66 65 65 65 65 64 64 63 62 63 65 66 66 66 63 62 64 64 63 64 65 64 65 65 67 67 67 66 66 66 65 65 65 64 64 63 63
65 66 66 66 66 66 66 65 65 65 64 63 63 63 63 65 65 65 66 65 62 62 63 64 64 65 65 66 65 65 65 65 66 66 66 65 64 64 64 63 62 63
65 66 66 66 66 66 65 65 65 66 64 63 63 63 64 64 64 65 66 65 63 63 64 64 63 64 65 65 65 65 65 65 65 66 66 66 65 65 64 63 62 62
66 66 66 66 66 65 65 65 65 65 65 63 64 65 66 65 65 65 65 64 63 65 65 66 65 65 67 66 66 65 67 65 64 66 66 64 64 64 64 63 62 63
65 66 65 65 65 65 65 65 65 65 65 64 64 65 66 66 65 65 65 65 64 64 65 66 66 66 65 63 63 65 66 65 66 66 64 64 65 65 64 63 63 63
65 64 64 65 64 65 65 65 65 65 65 65 65 66 66 66 66 65 65 65 64 64 65 66 67 66 60 53 55 58 66 66 66 65 65 65 65 64 63 64 64 63
65 63 63 63 64 65 65 64 65 65 66 66 66 66 67 67 66 65 65 66 66 65 65 66 67 64 51 51 53 54 60 66 66 66 65 66 65 64 64 63 63 64
62 62 62 63 63 63 64 65 65 65 65 66 66 66 67 67 66 66 66 66 66 66 66 66 66 58 48 50 50 51 54 63 66 65 65 65 65 64 63 63 63 64
62 62 62 62 61 63 64 64 64 64 65 66 66 67 66 66 66 66 66 66 66 65 65 64 64 58 50 50 49 48 48 55 65 66 66 65 65 64 63 63 63 63
61 60 61 61 61 61 62 63 64 65 65 65 66 66 66 66 65 65 65 65 66 66 66 65 65 54 49 49 48 48 46 53 65 66 65 65 66 65 65 65 65 64
61 59 59 60 60 59 60 62 63 64 64 65 66 66 66 66 66 66 65 65 66 66 65 65 68 49 48 48 48 48 46 61 64 65 65 65 65 65 66 65 65 65
62 62 60 60 59 61 61 61 63 64 65 65 65 65 65 65 66 66 65 65 65 65 65 66 68 50 47 48 48 46 51 63 64 63 63 63 64 64 64 64 65 64
63 62 62 63 62 62 63 64 64 64 64 65 64 64 64 65 66 65 65 65 65 65 66 66 67 56 46 48 47 46 57 63 63 62 61 60 61 65 65 65 65 67
62 62 62 63 62 61 61 62 64 63 64 64 64 63 64 65 64 64 64 63 64 65 65 65 66 60 45 47 46 46 57 63 61 59 60 60 60 64 64 64 65 65
63 61 61 61 61 61 61 62 62 63 62 63 64 63 63 63 62 62 63 63 64 65 66 66 67 63 50 46 46 46 52 63 61 59 59 59 59 60 64 63 64 65